Carbondale, IL

3:38 PM CST on December 06, 2019 (GMT -0600)
Southern Illinois

Weather History for KMDH - October, 2019

Change the Weather History Date:

Sunday, October 27, 2019

  Actual Average Record
Temperature  
Mean Temperature 56 °F -  
Max Temperature 69 °F 65 °F 90 °F (1927)
Min Temperature 43 °F 38 °F 24 °F (1982)
Degree Days  
Heating Degree Days 9    
Growing Degree Days 6 (Base 50)    
Moisture  
Dew Point 47 °F    
Average Humidity 85    
Maximum Humidity 97    
Minimum Humidity 45    
Precipitation  
Precipitation 0.00 in - - ()
Sea Level Pressure  
Sea Level Pressure 29.98 in    
Wind  
Wind Speed 4 mph (SSW)    
Max Wind Speed 7 mph    
Max Gust Speed -    
Visibility 6 miles    
Events Fog    
Averages and records for this station are not official NWS values.
T = Trace of Precipitation, MM = Missing Value Source: NWS Daily Summary

Daily Weather History Graph

Daily Weather History Graph

Search for Another Location

Airport or City:

Astronomy

Oct. 27, 2019 Rise Set
Actual Time 7:16 AM CDT 6:04 PM CDT
Civil Twilight 6:50 AM CDT 6:31 PM CDT
Nautical Twilight 6:19 AM CDT 7:01 PM CDT
Astronomical Twilight 5:48 AM CDT 7:32 PM CDT
Moon 6:27 AM CDT (10/27) 6:12 PM CDT (10/27)
Length of Visible Light 11h 41m
Length of Day
10h 47m
Waning Crescent, 0% of the Moon is Illuminated
Oct 27
Waning Crescent
Oct 27
New
Nov 4
First Quarter
Nov 12
Full
Nov 19
Last Quarter

Hourly Weather History & Observations

Time (CDT) Temp. Windchill Dew Point Humidity Pressure Visibility Wind Dir Wind Speed Gust Speed Precip Events Conditions
12:52 AM 51.1 °F - 48.0 °F 89% 29.84 in 10.0 mi WSW 5.8 mph - N/A   Overcast
1:50 AM 50.0 °F - 48.2 °F 94% 29.85 in 10.0 mi WSW 4.6 mph - N/A   Overcast
1:52 AM 50.0 °F - 48.0 °F 93% 29.85 in 10.0 mi WSW 4.6 mph - N/A   Overcast
2:52 AM 50.0 °F - 48.0 °F 93% 29.88 in 10.0 mi West 4.6 mph - N/A   Overcast
3:52 AM 48.9 °F - 46.0 °F 90% 29.90 in 10.0 mi WSW 3.5 mph - N/A   Overcast
4:48 AM 48.2 °F - 44.6 °F 87% 29.91 in 10.0 mi South 3.5 mph - N/A   Scattered Clouds
4:52 AM 46.9 °F - 45.0 °F 93% 29.91 in 10.0 mi Calm Calm - N/A   Partly Cloudy
5:27 AM 44.1 °F - 43.0 °F 96% 29.93 in 1.8 mi Calm Calm - N/A   Clear
5:45 AM 44.1 °F 42.5 °F 42.1 °F 93% 29.94 in 0.8 mi South 3.5 mph - N/A   Mist
5:52 AM 43.0 °F 41.3 °F 42.1 °F 97% 29.94 in 0.5 mi South 3.5 mph - N/A Fog Fog
5:55 AM 43.0 °F 41.3 °F 42.1 °F 97% 29.94 in 1.0 mi South 3.5 mph - N/A   Clear
6:04 AM 44.1 °F 41.5 °F 42.1 °F 93% 29.94 in 3.0 mi South 4.6 mph - N/A   Clear
6:13 AM 43.0 °F 41.3 °F 41.0 °F 93% 29.95 in 1.8 mi South 3.5 mph - N/A   Clear
6:17 AM 43.0 °F 41.3 °F 41.0 °F 93% 29.95 in 0.8 mi South 3.5 mph - N/A   Mist
6:52 AM 43.0 °F 41.3 °F 41.0 °F 93% 29.96 in 0.5 mi South 3.5 mph - N/A Fog Fog
7:14 AM 44.1 °F 41.5 °F 42.1 °F 93% 29.97 in 0.2 mi SSW 4.6 mph - N/A Fog Fog
7:52 AM 44.1 °F 42.5 °F 43.0 °F 96% 29.98 in 0.5 mi SSW 3.5 mph - N/A Fog Fog
8:02 AM 46.0 °F - 44.1 °F 93% 29.98 in 4.0 mi Calm Calm - N/A   Clear
8:29 AM 48.9 °F - 46.0 °F 90% 29.99 in 6.0 mi SW 5.8 mph - N/A   Clear
8:43 AM 48.9 °F - 46.9 °F 93% 30.00 in 6.0 mi SSW 4.6 mph - N/A   Partly Cloudy
8:52 AM 50.0 °F - 46.9 °F 89% 30.00 in 6.0 mi WSW 4.6 mph - N/A   Mostly Cloudy
9:22 AM 50.0 °F - 46.9 °F 89% 30.01 in 10.0 mi SW 3.5 mph - N/A   Scattered Clouds
9:52 AM 54.0 °F - 48.9 °F 83% 30.02 in 10.0 mi Variable 3.5 mph - N/A   Clear
10:52 AM 57.9 °F - 48.9 °F 72% 30.04 in 10.0 mi SSW 3.5 mph - N/A   Clear
11:52 AM 63.0 °F - 48.9 °F 60% 30.03 in 10.0 mi SW 5.8 mph - N/A   Clear
12:52 PM 66.0 °F - 46.9 °F 50% 30.01 in 7.0 mi SSW 5.8 mph - N/A   Clear
1:52 PM 66.9 °F - 48.0 °F 51% 30.01 in 10.0 mi SSW 4.6 mph - N/A   Clear
2:52 PM 69.1 °F - 46.9 °F 45% 30.00 in 10.0 mi South 6.9 mph - N/A   Clear
3:52 PM 68.0 °F - 46.0 °F 45% 30.00 in 10.0 mi South 6.9 mph - N/A   Clear
4:52 PM 66.9 °F - 48.9 °F 52% 29.99 in 10.0 mi South 6.9 mph - N/A   Clear
5:52 PM 61.0 °F - 50.0 °F 67% 30.00 in 10.0 mi SW 5.8 mph - N/A   Clear
6:52 PM 55.9 °F - 50.0 °F 80% 30.03 in 10.0 mi South 5.8 mph - N/A   Clear
7:52 PM 53.1 °F - 48.9 °F 86% 30.04 in 5.0 mi South 4.6 mph - N/A   Clear
8:52 PM 50.0 °F - 46.9 °F 89% 30.04 in 5.0 mi South 3.5 mph - N/A   Clear
9:52 PM 50.0 °F - 48.0 °F 93% 30.05 in 3.0 mi South 6.9 mph - N/A   Clear
10:50 PM 51.8 °F - 50.0 °F 94% 30.05 in 4.0 mi South 3.5 mph - N/A   Scattered Clouds
10:52 PM 52.0 °F - 50.0 °F 93% 30.05 in 4.0 mi South 3.5 mph - N/A   Scattered Clouds
11:01 PM 52.0 °F - 50.0 °F 93% 30.05 in 3.0 mi SSW 3.5 mph - N/A   Mostly Cloudy
11:33 PM 54.0 °F - 51.1 °F 90% 30.05 in 2.5 mi South 6.9 mph - N/A   Overcast
11:48 PM 53.6 °F - 51.8 °F 94% 30.05 in 3.0 mi SSW 6.9 mph - N/A   Overcast
11:52 PM 54.0 °F - 52.0 °F 93% 30.05 in 3.0 mi SSW 6.9 mph - N/A   Overcast